Location: *
(43.4667°N, 11.6833°E)
Time: 09:34:32
(UTC+00:00)

Cosmos 1500 Rocket - Pass Details

Date: 19 July 2019
Orbit: 602 x 632 km, 82.5° (Epoch: 21 August)

Event Time Altitude Azimuth Distance (km) Brightness Sun altitude
Exits shadow 19:54:46 13° 150° (SSE) 1,823 5.4 -10.4°
Maximum altitude 19:58:13 33° 90° (E) 1,078 4.4 -10.9°
Drops below altitude 10° 20:02:13 10° 27° (NNE) 2,024 6.4 -11.4°
Sets 20:04:37 0° 18° (NNE) 2,935 7.4 -11.7°
